Durango, CO

9:27 PM MDT on May 20, 2018 (GMT -0600)
Durango-La Plata County

Weather History for KDRO - September, 2014

Change the Weather History Date:

Wednesday, September 3, 2014

  Actual Average Record
Temperature  
Mean Temperature 65 °F 63 °F  
Max Temperature 86 °F 79 °F 90 °F (1990)
Min Temperature 44 °F 47 °F 29 °F (1973)
Degree Days  
Heating Degree Days 0 3  
Month to date heating degree days 1 7  
Since 1 July heating degree days 28 36  
Cooling Degree Days 0 1  
Month to date cooling degree days 1 3  
Year to date cooling degree days 293 240  
Growing Degree Days 16 (Base 50)    
Moisture  
Dew Point 32 °F    
Average Humidity 36    
Maximum Humidity 60    
Minimum Humidity 11    
Precipitation  
Precipitation 0.00 in 0.06 in 0.75 in (2013)
Month to date precipitation 0.00 0.18  
Year to date precipitation 5.63 10.15  
Sea Level Pressure  
Sea Level Pressure 29.86 in    
Wind  
Wind Speed 6 mph (South)    
Max Wind Speed 22 mph    
Max Gust Speed 28 mph    
Visibility 10 miles    
Events      
T = Trace of Precipitation, MM = Missing Value Source: NWS Daily Summary

Daily Weather History Graph

Daily Weather History Graph

Search for Another Location

Airport or City:

Astronomy

Sep. 03, 2014 Rise Set
Actual Time 6:43 AM MDT 7:36 PM MDT
Civil Twilight 6:16 AM MDT 8:03 PM MDT
Nautical Twilight 5:45 AM MDT 8:34 PM MDT
Astronomical Twilight 5:12 AM MDT 9:06 PM MDT
Moon 3:17 PM MDT (9/3) 12:44 AM MDT (9/3)
Length of Visible Light 13h 46m
Length of Day
12h 53m
Waxing Gibbous, 64% of the Moon is Illuminated
Sep 3
Waxing Gibbous
Sep 8
Full
Sep 15
Last Quarter
Sep 24
New
Oct 1
First Quarter

Hourly Weather History & Observations

Time (MDT) Temp. Dew Point Humidity Pressure Visibility Wind Dir Wind Speed Gust Speed Precip Events Conditions
12:53 AM 57.9 °F 35.1 °F 42% 29.84 in 10.0 mi NNW 4.6 mph - N/A   Clear
1:53 AM 55.0 °F 33.1 °F 43% 29.84 in 10.0 mi Calm Calm - N/A   Clear
2:53 AM 53.1 °F 32.0 °F 45% 29.86 in 10.0 mi Calm Calm - N/A   Clear
3:53 AM 48.9 °F 34.0 °F 56% 29.87 in 10.0 mi Calm Calm - N/A   Clear
4:53 AM 46.9 °F 33.1 °F 59% 29.89 in 10.0 mi NNE 4.6 mph - N/A   Clear
5:53 AM 46.9 °F 34.0 °F 61% 29.90 in 10.0 mi Calm Calm - N/A   Clear
6:53 AM 48.0 °F 34.0 °F 58% 29.91 in 10.0 mi North 4.6 mph - N/A   Clear
7:53 AM 51.1 °F 34.0 °F 52% 29.94 in 10.0 mi South 3.5 mph - N/A   Clear
8:53 AM 62.1 °F 35.1 °F 37% 29.92 in 10.0 mi East 3.5 mph - N/A   Clear
9:53 AM 68.0 °F 37.0 °F 32% 29.93 in 10.0 mi East 6.9 mph - N/A   Clear
10:53 AM 73.9 °F 34.0 °F 23% 29.93 in 10.0 mi East 5.8 mph - N/A   Clear
11:53 AM 78.1 °F 34.0 °F 20% 29.91 in 10.0 mi Variable 4.6 mph - N/A   Clear
12:53 PM 81.0 °F 33.1 °F 18% 29.87 in 10.0 mi Calm Calm - N/A   Clear
1:53 PM 84.0 °F 30.0 °F 14% 29.84 in - Variable 5.8 mph 16.1 mph N/A   Clear
2:53 PM 84.9 °F 28.9 °F 13% 29.83 in 10.0 mi South 18.4 mph 28.8 mph N/A   Clear
3:53 PM 86.0 °F 30.9 °F 14% 29.80 in 10.0 mi SW 16.1 mph 21.9 mph N/A   Clear
4:53 PM 86.0 °F 26.1 °F 11% 29.79 in 10.0 mi SW 12.7 mph 21.9 mph N/A   Clear
5:53 PM 84.9 °F 25.0 °F 11% 29.80 in 10.0 mi SSW 13.8 mph 21.9 mph N/A   Clear
6:53 PM 82.0 °F 26.1 °F 13% 29.79 in 10.0 mi WSW 16.1 mph - N/A   Clear
7:53 PM 77.0 °F 26.1 °F 15% 29.81 in 10.0 mi WSW 6.9 mph - N/A   Clear
8:53 PM 73.9 °F 27.0 °F 18% 29.80 in 10.0 mi Calm Calm - N/A   Clear
9:53 PM 64.0 °F 33.1 °F 31% 29.82 in 10.0 mi North 9.2 mph - N/A   Clear
10:53 PM 59.0 °F 33.1 °F 38% 29.82 in 10.0 mi Calm Calm - N/A   Clear
11:53 PM 57.0 °F 33.1 °F 40% 29.81 in 10.0 mi NE 3.5 mph - N/A   Clear